This is the latest recevied weather packets stored in our database for station/object WA1OUI. If no packets are shown the sender has not sent any weather packets the latest 10 day(s).
| Time | Temp. | Humidity | Pressure | Rain* | Wind** | Luminosity | Snow |
|---|---|---|---|---|---|---|---|
| 1777789694 | 5.56° C | 63% | 1008.6 hPa | 0 mm | - | 0 W/m² | - |
| 1777789393 | 5.56° C | 65% | 1008.6 hPa | 0 mm | - | 0 W/m² | - |
| 1777789090 | 5.56° C | 61% | 1008.8 hPa | 0 mm | - | 0 W/m² | - |
| 1777788786 | 5.56° C | 66% | 1008.8 hPa | 0 mm | - | 0 W/m² | - |
| 1777788482 | 5.56° C | 66% | 1008.8 hPa | 0 mm | - | 0 W/m² | - |
| 1777788176 | 5.56° C | 60% | 1008.9 hPa | 0 mm | - | 0 W/m² | - |
| 1777787872 | 6.11° C | 61% | 1009.1 hPa | 0 mm | - | 0 W/m² | - |
| 1777787568 | 6.11° C | 62% | 1009.2 hPa | 0 mm | - | 0 W/m² | - |
| 1777787263 | 6.11° C | 61% | 1009.2 hPa | 0 mm | - | 0 W/m² | - |
| 1777786960 | 6.11° C | 60% | 1009.2 hPa | 0 mm | - | 0 W/m² | - |
| 1777786658 | 6.11° C | 56% | 1009.3 hPa | 0 mm | - | 0 W/m² | - |
| 1777786357 | 6.11° C | 61% | 1009.3 hPa | 0 mm | - | 0 W/m² | - |
| 1777786052 | 6.11° C | 61% | 1009.2 hPa | 0 mm | - | 0 W/m² | - |
| 1777785749 | 6.11° C | 56% | 1009.2 hPa | 0 mm | - | 0 W/m² | - |
| 1777785444 | 6.11° C | 62% | 1009.3 hPa | 0 mm | - | 0 W/m² | - |
| 1777785142 | 6.11° C | 61% | 1009.4 hPa | 0 mm | - | 0 W/m² | - |
| 1777784839 | 6.67° C | 60% | 1009.5 hPa | 0 mm | - | 0 W/m² | - |
| 1777784535 | 6.67° C | 59% | 1009.7 hPa | 0 mm | - | 0 W/m² | - |
| 1777784233 | 6.67° C | 58% | 1009.6 hPa | 0 mm | - | 0 W/m² | - |
| 1777783930 | 6.67° C | 59% | 1009.7 hPa | 0 mm | - | 0 W/m² | - |
| 1777783626 | 6.67° C | 61% | 1009.7 hPa | 0 mm | - | 0 W/m² | - |
| 1777783324 | 6.67° C | 58% | 1009.6 hPa | 0 mm | - | 0 W/m² | - |
| 1777783020 | 6.67° C | 56% | 1009.6 hPa | 0 mm | - | 0 W/m² | - |
| 1777782718 | 6.67° C | 60% | 1009.6 hPa | 0 mm | - | 0 W/m² | - |
| 1777782414 | 6.67° C | 60% | 1009.4 hPa | 0 mm | - | 0 W/m² | - |
* Rain latest hour (hover to see other rain measurements)
** Current wind speed in m/s (hover to see current wind gust speed)